カタログに戻る

THORAD AGENA D DEB

運用中SSO
NORAD 4689·DEBRIS·🇺🇸 United States

打ち上げ Apr 8, 1970 から Vandenberg Space Force Base

Loading…

次のパス (今後24時間)

TLE

最新Source: Space-Track

元期: Sep 14, 2026, 11:23 UTC

1 04689U 70025BN  26257.47459860  .00000183  00000-0  31435-3 0  9997
2 04689  99.3590  87.1054 0069692 149.6935 240.5693 13.56178833782526

AllMySatでTHORAD AGENA D DEBをリアルタイム追跡

Download on the App Store